Hartford, CT

4:10 AM EDT on April 25, 2017 (GMT -0400)
Hartford-brainard

Weather History for KHFD - May, 2013

Change the Weather History Date:

Monday, May 13, 2013

  Actual Average Record
Temperature  
Mean Temperature 50 °F -  
Max Temperature 57 °F 70 °F 87 °F (1947)
Min Temperature 45 °F 46 °F 27 °F (1984)
Degree Days  
Heating Degree Days 15    
Moisture  
Dew Point 29 °F    
Average Humidity 44    
Maximum Humidity 60    
Minimum Humidity 31    
Precipitation  
Precipitation 0.00 in - - ()
Sea Level Pressure  
Sea Level Pressure 29.98 in    
Wind  
Wind Speed 6 mph (West)    
Max Wind Speed 12 mph    
Max Gust Speed 20 mph    
Visibility 10 miles    
Events      
Averages and records for this station are not official NWS values.
T = Trace of Precipitation, MM = Missing Value Source: NWS Daily Summary

Daily Weather History Graph

Daily Weather History Graph

Search for Another Location

Airport or City:

Trip Planner

Search our weather history database for the weather conditions in past years. The results will help you decide how hot, cold, wet, or windy it might be!

Date:

Astronomy

May. 13, 2013 Rise Set
Actual Time 5:32 AM EDT 8:01 PM EDT
Civil Twilight 5:01 AM EDT 8:33 PM EDT
Nautical Twilight 4:21 AM EDT 9:12 PM EDT
Astronomical Twilight 3:37 AM EDT 9:57 PM EDT
Moon 8:15 AM EDT (5/13) 11:09 PM EDT (5/13)
Length of Visible Light 15h 32m
Length of Day
14h 29m
Waxing Crescent, 12% of the Moon is Illuminated
May 13
Waxing Crescent
May 18
First Quarter
May 25
Full
May 31
Last Quarter
Jun 8
New

Hourly Weather History & Observations

Time (EDT) Temp. Windchill Dew Point Humidity Pressure Visibility Wind Dir Wind Speed Gust Speed Precip Events Conditions
12:53 AM 50.0 °F - 30.0 °F 46% 29.89 in 10.0 mi WSW 4.6 mph - N/A   Clear
1:53 AM 48.0 °F - 30.9 °F 52% 29.90 in 10.0 mi SW 3.5 mph - N/A   Clear
2:53 AM 48.0 °F - 30.0 °F 50% 29.91 in 10.0 mi SW 3.5 mph - N/A   Clear
3:53 AM 46.9 °F - 30.9 °F 54% 29.92 in 10.0 mi WSW 4.6 mph - N/A   Clear
4:53 AM 45.0 °F 40.6 °F 32.0 °F 60% 29.93 in 10.0 mi WSW 8.1 mph - N/A   Clear
5:53 AM 45.0 °F 43.5 °F 30.9 °F 58% 29.95 in 10.0 mi SSW 3.5 mph - N/A   Clear
6:53 AM 46.0 °F 44.8 °F 32.0 °F 58% 29.96 in 10.0 mi Variable 3.5 mph - N/A   Clear
7:53 AM 48.0 °F - 30.9 °F 52% 29.98 in 10.0 mi WSW 9.2 mph - N/A   Clear
8:53 AM 50.0 °F - 28.9 °F 44% 29.99 in 10.0 mi West 10.4 mph 16.1 mph N/A   Scattered Clouds
9:53 AM 52.0 °F - 30.0 °F 43% 29.99 in 10.0 mi WSW 11.5 mph 17.3 mph N/A   Mostly Cloudy
10:53 AM 53.1 °F - 28.0 °F 38% 29.99 in 10.0 mi West 11.5 mph - N/A   Mostly Cloudy
11:53 AM 54.0 °F - 28.0 °F 37% 29.99 in 10.0 mi WSW 8.1 mph - N/A   Partly Cloudy
12:53 PM 55.9 °F - 28.0 °F 34% 29.99 in 10.0 mi WSW 6.9 mph 17.3 mph N/A   Mostly Cloudy
1:53 PM 55.0 °F - 26.1 °F 33% 29.98 in 10.0 mi WSW 11.5 mph 17.3 mph N/A   Mostly Cloudy
2:53 PM 55.0 °F - 25.0 °F 31% 29.98 in 10.0 mi West 9.2 mph 18.4 mph N/A   Partly Cloudy
4:53 PM 54.0 °F - 26.1 °F 34% 29.98 in 10.0 mi NW 9.2 mph 19.6 mph N/A   Overcast
5:53 PM 52.0 °F - 27.0 °F 38% 29.99 in 10.0 mi WNW 9.2 mph - N/A   Overcast
6:53 PM 52.0 °F - 27.0 °F 38% 29.99 in 10.0 mi WNW 8.1 mph - N/A   Overcast
8:53 PM 50.0 °F - 26.1 °F 39% 30.04 in 10.0 mi NW 8.1 mph - N/A   Overcast
9:53 PM 48.0 °F - 27.0 °F 44% 30.07 in 10.0 mi NNW 6.9 mph - N/A   Mostly Cloudy
10:53 PM 48.0 °F - 28.0 °F 46% 30.07 in 10.0 mi WNW 4.6 mph - N/A   Overcast
11:53 PM 46.0 °F 41.9 °F 28.0 °F 50% 30.06 in 10.0 mi NW 8.1 mph - N/A   Clear